Location: Glums�
(55.3568°N, 11.6856°E)
Time: 02:42:40
(UTC+00:00)

Cosmos 1400 Rocket - Pass Details

Date: 07 June 2020
Orbit: 522 x 568 km, 81.2° (Epoch: 06 July)

Event Time Altitude Azimuth Distance (km) Brightness Sun altitude
Rises 23:59:02 0° 346° (NNW) 2,783 7.7 -11.2°
Reaches altitude 10° 00:01:14 10° 349° (N) 1,882 6.7 -11.2°
Maximum altitude 00:05:24 70° 74° (ENE) 612 3.1 -11.0°
Enters shadow 00:09:27 10° 158° (SSE) 1,841 5.0 -10.9°
